Location: Mount Cross
(36.6390°N, 79.4878°W)
Time: 00:14:03
(UTC+00:00)

Vanguard 2 Rocket - Pass Details

Date: 25 March 2023
Orbit: 554 x 3314 km, 32.9° (Epoch: 08 June)

Event Time Altitude Azimuth Distance (km) Brightness Sun altitude
Rises 01:24:47 0° 251° (WSW) 3,667 10.8 -22.7°
Reaches altitude 10° 01:26:55 10° 248° (WSW) 2,955 10.1 -23.1°
Maximum altitude 01:34:18 67° 167° (SSE) 1,703 8.0 -24.5°
Enters shadow 01:39:25 38° 99° (E) 2,735 8.7 -25.4°
